User: anonymous   Login
Location: Unspecified
(0.0000°N, 0.0000°E)
Time: 11:02:51
(UTC+00:00)
Language:

Okean 1-7 - Orbit

View from above orbital plane
View from above orbital plane
View from above satellite
View from above satellite

Ground track
Ground track

The orbit data is extracted from the following two-line orbital elements,

1 23317U 94066A   17352.18691287  .00000209  00000-0  20268-4 0  9994
2 23317  82.5376 305.2596 0019960 169.6333 190.5300 14.87498774253293
Epoch (UTC): 18 December 2017 04:29:09
Eccentricity: 0.0019960
inclination: 82.5376°
perigee height: 592 km
apogee height: 619 km
right ascension of ascending node: 305.2596°
argument of perigee: 169.6333°
revolutions per day: 14.87498774
mean anomaly at epoch: 190.5300°
orbit number at epoch: 25329

The dashed part of the orbit path shows where the satellite is in the earth's shadow,  

DLR